TimeCET,TemperatureF,Dew PointF,Humidity,Sea Level PressureIn,VisibilityMPH,Wind Direction,Wind SpeedMPH,Gust SpeedMPH,PrecipitationIn,Events,Conditions,WindDirDegrees,DateUTC
12:00 AM,46.4,44.6,93,30.12,6.2,ENE,2.3,-,N/A,,Mostly Cloudy,60,2012-12-11 23:00:00
12:30 AM,44.6,44.6,100,30.12,6.2,NNE,1.2,-,N/A,,Mostly Cloudy,30,2012-12-11 23:30:00
1:00 AM,42,41,93,30.14,7,North,2.3,,,,Partly Cloudy,350,2012-12-12 00:00:00
1:00 AM,42.8,41.0,93,30.12,6.2,Calm,Calm,-,N/A,,Scattered Clouds,0,2012-12-12 00:00:00
1:30 AM,42.8,41.0,93,30.12,6.2,ENE,3.5,-,N/A,,Scattered Clouds,60,2012-12-12 00:30:00
2:00 AM,42.8,41.0,93,30.12,6.2,Calm,Calm,-,N/A,,Scattered Clouds,0,2012-12-12 01:00:00
2:30 AM,42.8,41.0,93,30.12,6.2,Variable,1.2,-,N/A,,Scattered Clouds,0,2012-12-12 01:30:00
3:00 AM,42.8,41.0,93,30.12,6.2,Variable,1.2,-,N/A,,Scattered Clouds,0,2012-12-12 02:00:00
3:30 AM,42.8,41.0,93,30.12,6.2,NE,3.5,-,N/A,,Scattered Clouds,40,2012-12-12 02:30:00
4:00 AM,41.0,41.0,100,30.12,6.2,Variable,1.2,-,N/A,,Scattered Clouds,0,2012-12-12 03:00:00
4:30 AM,42.8,42.8,100,30.09,6.2,ENE,5.8,-,N/A,,Partly Cloudy,70,2012-12-12 03:30:00
5:00 AM,42.8,42.8,100,30.09,6.2,NE,6.9,-,N/A,,Partly Cloudy,50,2012-12-12 04:00:00
5:30 AM,44.6,42.8,93,30.09,6.2,NE,6.9,-,N/A,,Partly Cloudy,50,2012-12-12 04:30:00
6:00 AM,44.6,41.0,87,30.09,6.2,Calm,Calm,-,N/A,,Partly Cloudy,0,2012-12-12 05:00:00
6:30 AM,44.6,41.0,87,30.09,6.2,Calm,Calm,-,N/A,,Partly Cloudy,0,2012-12-12 05:30:00
7:00 AM,42,39,86,30.12,7,ENE,2.3,,,,Mostly Cloudy,70,2012-12-12 06:00:00
7:00 AM,44.6,41.0,87,30.09,6.2,Variable,1.2,-,N/A,,Scattered Clouds,0,2012-12-12 06:00:00
7:30 AM,42.8,41.0,93,30.09,6.2,ENE,4.6,-,N/A,,Scattered Clouds,60,2012-12-12 06:30:00
8:00 AM,42.8,41.0,93,30.09,6.2,Variable,1.2,-,N/A,,Scattered Clouds,0,2012-12-12 07:00:00
8:30 AM,42.8,41.0,93,30.09,6.2,Calm,Calm,-,N/A,,Scattered Clouds,0,2012-12-12 07:30:00
9:00 AM,42.8,41.0,93,30.12,6.2,NE,1.2,-,N/A,,Mostly Cloudy,40,2012-12-12 08:00:00
9:30 AM,44.6,42.8,93,30.12,6.2,ENE,3.5,-,N/A,,Mostly Cloudy,60,2012-12-12 08:30:00
10:00 AM,46.4,44.6,93,30.12,6.2,ENE,2.3,-,N/A,,Mostly Cloudy,70,2012-12-12 09:00:00
10:30 AM,50.0,44.6,82,30.12,6.2,ENE,4.6,-,N/A,,Mostly Cloudy,70,2012-12-12 09:30:00
11:00 AM,50.0,44.6,82,30.12,6.2,NE,5.8,-,N/A,,Mostly Cloudy,50,2012-12-12 10:00:00
11:30 AM,51.8,44.6,76,30.12,6.2,ENE,5.8,-,N/A,,Mostly Cloudy,60,2012-12-12 10:30:00
12:00 PM,51.8,44.6,76,30.09,6.2,NE,5.8,-,N/A,,Mostly Cloudy,50,2012-12-12 11:00:00
12:30 PM,51.8,44.6,76,30.09,6.2,NE,3.5,-,N/A,,Overcast,50,2012-12-12 11:30:00
1:00 PM,51,43,65,30.11,16,NE,3.5,,,,Overcast,50,2012-12-12 12:00:00
1:00 PM,51.8,44.6,76,30.09,6.2,ENE,3.5,-,N/A,,Overcast,60,2012-12-12 12:00:00
1:30 PM,51.8,46.4,82,30.09,3.7,NE,3.5,-,N/A,Rain,Light Rain,40,2012-12-12 12:30:00
2:00 PM,51.8,46.4,82,30.06,6.2,ENE,3.5,-,N/A,,Overcast,70,2012-12-12 13:00:00
2:30 PM,51.8,46.4,82,30.06,6.2,ENE,4.6,-,N/A,,Overcast,60,2012-12-12 13:30:00
3:00 PM,51.8,46.4,82,30.06,6.2,NE,4.6,-,N/A,,Overcast,50,2012-12-12 14:00:00
3:30 PM,51.8,48.2,88,30.06,3.7,Variable,2.3,-,N/A,Rain,Light Rain,0,2012-12-12 14:30:00
3:47 PM,51.8,48.2,88,30.06,3.7,ENE,2.3,-,N/A,Rain,Rain,60,2012-12-12 14:47:00
4:00 PM,50.0,48.2,94,30.06,3.7,ENE,4.6,-,N/A,,Overcast,60,2012-12-12 15:00:00
4:30 PM,50.0,48.2,94,30.06,4.3,NNE,3.5,-,N/A,,Overcast,30,2012-12-12 15:30:00
5:00 PM,50.0,48.2,94,30.06,4.3,NE,4.6,-,N/A,Rain,Light Rain,40,2012-12-12 16:00:00
5:30 PM,50.0,48.2,94,30.06,4.3,NE,4.6,-,N/A,Rain,Light Rain,40,2012-12-12 16:30:00
6:00 PM,50.0,48.2,94,30.04,3.7,ENE,5.8,-,N/A,Rain,Rain,70,2012-12-12 17:00:00
6:30 PM,50.0,48.2,94,30.04,3.7,NE,5.8,-,N/A,Rain,Light Rain,50,2012-12-12 17:30:00
7:00 PM,48,46,90,30.05,4,NNE,5.8,,,Rain,Light Rain,30,2012-12-12 18:00:00
7:00 PM,50.0,48.2,94,30.04,3.7,NNE,6.9,-,N/A,Rain,Light Rain,30,2012-12-12 18:00:00
7:30 PM,50.0,48.2,94,30.04,3.7,ENE,3.5,-,N/A,Rain,Light Rain,60,2012-12-12 18:30:00
8:00 PM,50.0,48.2,94,30.04,4.3,NE,4.6,-,N/A,Rain,Light Rain,50,2012-12-12 19:00:00
8:30 PM,50.0,48.2,94,30.04,4.3,NE,4.6,-,N/A,,Drizzle,40,2012-12-12 19:30:00
9:00 PM,50.0,48.2,94,30.04,4.3,ENE,5.8,-,N/A,,Overcast,60,2012-12-12 20:00:00
9:30 PM,50.0,48.2,94,30.04,6.2,ENE,3.5,-,N/A,,Mostly Cloudy,60,2012-12-12 20:30:00
10:00 PM,51.8,48.2,88,30.04,6.2,ENE,4.6,-,N/A,,Mostly Cloudy,60,2012-12-12 21:00:00
10:30 PM,51.8,48.2,88,30.04,6.2,ENE,2.3,-,N/A,Rain,Light Rain,60,2012-12-12 21:30:00
11:00 PM,51.8,48.2,88,30.04,5.0,ENE,3.5,-,N/A,Rain,Rain,60,2012-12-12 22:00:00
11:30 PM,50.0,48.2,94,30.01,5.0,ENE,8.1,-,N/A,Rain,Rain,70,2012-12-12 22:30:00